Location: Pinon Hills
(34.4429°N, 117.6403°W)
Time: 22:48:11
(UTC-07:00)

Uosat F - Visible Passes

Search period start: 22 April 2018 00:00
Search period end: 02 May 2018 00:00
Orbit: 749 x 762 km, 98.7° (Epoch: 22 April)

Date Brightness Start Highest point End Pass type
(mag) Time Alt. Az. Time Alt. Az. Time Alt. Az.
22 Apr 13.5 20:43:26 10° SW 20:47:15 22° W 20:51:06 10° NW visible
23 Apr 11.8 20:02:40 10° S 20:07:35 57° W 20:12:30 10° NNW visible
24 Apr 13.9 21:04:43 10° WSW 21:07:08 13° W 21:09:35 10° WNW visible
25 Apr 12.7 20:22:48 10° SSW 20:27:21 35° W 20:31:56 10° NNW visible
27 Apr 13.4 20:43:20 10° SSW 20:47:11 22° W 20:51:03 10° NW visible
28 Apr 11.8 20:02:36 10° S 20:07:30 58° WSW 20:12:26 10° NNW visible
29 Apr 13.8 21:04:34 10° WSW 21:07:04 14° W 21:09:34 10° WNW visible
30 Apr 12.7 20:22:43 10° SSW 20:27:17 36° W 20:31:52 10° NNW visible
